ORBCOMM FM108 [+]

Last updated on Fri Dec 29 2023 00:02:54 GMT+0000 (Coordinated Universal Time)

1 41187U 15081J 23362.35389679 .00001505 00000+0 37495-3 0 9993 2 41187 47.0032 118.0824 0001969 350.4467 9.6380 14.56168274428584

Satellite not in orbit

ORBCOMM FM108 [+]